User: anonymous   Login
Location: Hoyos del Collado
(40.3594°N, 5.2003°W)
Time: 18:34:04
(UTC+00:00)
Language:

Cosmos 1980 Rocket - Orbit

View from above orbital plane
View from above orbital plane
View from above satellite
View from above satellite

Ground track
Ground track

The orbit data is extracted from the following two-line orbital elements,

1 19650U 88102B   24165.92407727  .00000213  00000-0  13203-3 0  9994
2 19650  71.0005  44.8435 0016366 257.2780 102.6514 14.15974477837171
Epoch (UTC): 13 June 2024 22:10:40
Eccentricity: 0.0016366
inclination: 71.0005°
perigee height: 827 km
apogee height: 851 km
right ascension of ascending node: 44.8435°
argument of perigee: 257.2780°
revolutions per day: 14.15974477
mean anomaly at epoch: 102.6514°
orbit number at epoch: 83717

The dashed part of the orbit path shows where the satellite is in the earth's shadow,  

DLR